This is the latest recevied weather packets stored in our database for station/object K5UBE. If no packets are shown the sender has not sent any weather packets the latest 10 day(s).
| Time | Temp. | Humidity | Pressure | Rain* | Wind** | Luminosity | Snow |
|---|---|---|---|---|---|---|---|
| 1777952235 | 20.56° C | 24% | 1009.6 hPa | 0 mm | - | - | - |
| 1777951933 | 20° C | 25% | 1009.8 hPa | 0 mm | - | - | - |
| 1777951631 | 20° C | 25% | 1009.7 hPa | 0 mm | - | - | - |
| 1777951326 | 20° C | 26% | 1009.6 hPa | 0 mm | - | - | - |
| 1777951024 | 20° C | 26% | 1009.6 hPa | 0 mm | - | - | - |
| 1777950720 | 20° C | 26% | 1009.7 hPa | 0 mm | - | - | - |
| 1777950417 | 20° C | 26% | 1009.7 hPa | 0 mm | - | - | - |
| 1777950113 | 20° C | 26% | 1009.8 hPa | 0 mm | - | - | - |
| 1777949809 | 20° C | 26% | 1009.7 hPa | 0 mm | - | - | - |
| 1777949508 | 20° C | 26% | 1009.7 hPa | 0 mm | - | - | - |
| 1777949205 | 20° C | 27% | 1009.5 hPa | 0 mm | - | - | - |
| 1777948902 | 20.56° C | 26% | 1009.6 hPa | 0 mm | - | - | - |
| 1777948599 | 20.56° C | 26% | 1009.6 hPa | 0 mm | - | - | - |
| 1777948297 | 21.11° C | 25% | 1009.4 hPa | 0 mm | - | - | - |
| 1777947994 | 21.67° C | 24% | 1009.4 hPa | 0 mm | - | - | - |
| 1777947691 | 21.67° C | 24% | 1009.5 hPa | 0 mm | - | - | - |
| 1777947387 | 21.67° C | 24% | 1009.3 hPa | 0 mm | - | - | - |
| 1777947084 | 22.22° C | 23% | 1009.2 hPa | 0 mm | - | - | - |
| 1777946780 | 22.78° C | 23% | 1009.3 hPa | 0 mm | - | - | - |
| 1777946476 | 22.78° C | 22% | 1009.3 hPa | 0 mm | - | - | - |
| 1777946173 | 22.78° C | 22% | 1009 hPa | 0 mm | - | - | - |
| 1777945870 | 22.78° C | 22% | 1009.2 hPa | 0 mm | - | - | - |
| 1777945567 | 23.33° C | 22% | 1009.3 hPa | 0 mm | - | - | - |
| 1777945264 | 23.33° C | 22% | 1009 hPa | 0 mm | - | - | - |
| 1777944961 | 23.33° C | 21% | 1009.2 hPa | 0 mm | - | - | - |
* Rain latest hour (hover to see other rain measurements)
** Current wind speed in m/s (hover to see current wind gust speed)